Location: Czekan�w
(50.3488°N, 18.7344°E)
Time: 23:30:37
(UTC+00:00)

Sich 1 - Pass Details

Date: 17 February 2020
Orbit: 595 x 624 km, 82.5° (Epoch: 05 April)

Event Time Altitude Azimuth Distance (km) Brightness Sun altitude
Rises 04:54:20 0° 346° (NNW) 2,852 6.3 -10.1°
Reaches altitude 10° 04:56:35 10° 343° (NNW) 1,946 5.4 -9.7°
Maximum altitude 05:00:47 57° 265° (W) 710 3.0 -9.1°
Drops below altitude 10° 05:04:59 10° 187° (S) 1,940 5.6 -8.4°
Sets 05:07:13 0° 183° (S) 2,842 6.5 -8.1°
